Weather Roundup
Issued by NWS Chicago, IL

Home | Current Version | Previous Version | Graphics & Text | Print | Product List | Glossary On
Versions: 1 2 3 4 5 6 7 8 9 10 11 12 13 14 15 16 17 18 19 20 21 22 23 24 25 26 27 28 29 30 31 32 33 34 35 36 37 38 39 40 41 42 43 44 45 46 47 48 49 50
000
NZUS59 KLOT 170108
HRRLOT

CHICAGO AREA WEATHER ROUNDUP
NATIONAL WEATHER SERVICE CHICAGO/ROMEOVILLE IL
700 PM CST TUE JAN 16 2018

NOTE: "FAIR" INDICATES FEW OR NO CLOUDS BELOW 12,000 FEET WITH NO
SIGNIFICANT WEATHER AND/OR OBSTRUCTIONS TO VISIBILITY.

* THESE STATIONS ARE NOT UNDER NWS QUALITY CONTROL. THEY ALSO MAY NOT
  REPORT WEATHER SUCH AS PRECIPITATION OR FOG.

ILZ005-006-012>014-019>023-170200-
NORTHEAST ILLINOIS

CITY           SKY/WX    TMP DP  RH WIND       PRES   REMARKS
OHARE            N/A     18   9  68 NW12      30.50S WCI   5
MIDWAY           N/A     20  10  65 NW9       30.51R WCI   9
AURORA           N/A     11   6  81 NW13      30.53S WCI  -4
LANSING*         N/A     18  12  78 W7        30.51R WCI   9
JOLIET*        MOCLDY    14   9  82 W3        30.55R
WAUKEGAN         N/A     18   9  68 NW6       30.50R WCI  10
DUPAGE AIRPORT   N/A     14   7  73 NW10      30.51S WCI   1
WHEELING         N/A     18  10  71 NW8       30.52S WCI   8
KANKAKEE*        N/A      9   5  82 W12       30.55R WCI  -5
MORRIS*          N/A      7   3  83 W8        30.55R WCI  -5
LEWIS AIRPORT*   N/A     14   9  80 NW9       30.53R WCI   2
NORTHERLY ISL    N/A     21  11  65 W10         N/A  WCI  10
$$

WIZ051-052-058>065-066-070>072-170200-
SOUTHEAST WISCONSIN

CITY           SKY/WX    TMP DP  RH WIND       PRES   REMARKS
MILWAUKEE        N/A     19  11  70 NW8       30.50S WCI   9
KENOSHA*         N/A     13   6  74 NW6       30.50S WCI   4
RACINE*          N/A     16   8  71 W5        30.52R WCI   9
BURLINGTON       N/A      6   3  84 W3        30.51S
WAUKESHA       CLEAR     12   9  85 W8        30.51R WCI   1
WEST BEND        N/A     10   9  92 CALM      30.49S
$$

INZ001>003-010>013-019-020-170200-
NORTHWEST INDIANA

CITY           SKY/WX    TMP DP  RH WIND       PRES   REMARKS
GARY*          MOCLDY    23  12  63 W12       30.51R WCI  12
MICHIGAN CITY* NOT AVBL
RENSSELAER*    NOT AVBL
VALPARAISO     SNOW      20  17  88 SW7       30.48R VSB 1/2 WCI  11
$$

LMZ740>746-170200-
SOUTHERN LAKE MICHIGAN

STATION/POSITION TIME  SKY/WX   TEMP WIND        PRES    VSBY
                                AIR  DIR/SP/G
                 (UTC)          (F)  (DEG/KT/KT) (MB)    (MI)
HARRISON CRIB    0040            23  310/ 17/ 19   N/A
BURNHAM HARBOR   0100            21  280/ 10/ 14   N/A
CALUMET HARBOR   0048            21  280/  9/ 13 1032.2R
BURNS HARBOR     0040            22  320/ 17/ 28 1032.2R
MICHIGAN CITY    0040                140/  7/  9   N/A
$$

ABBREVIATIONS USED IN REMARKS
   TC - TEMPERATURE IN CELSIUS
  WCI - WIND CHILL INDEX
   HX - HEAT INDEX
  VSB - VISIBILITY
$$




USA.gov is the U.S. government's official web portal to all federal, state and local government web resources and services.